[[{"header":{"parameterUnit":"m.s-1","parameterCategory":1,"la1":30.2991,"la2":30.254,"lo1":-89.0895,"lo2":-89.0444,"dy":0.0017,"dx":0.0017,"nx":28,"ny":28,"refTime":"2024-05-22T03:00:00:Z","depth":0,"parameterNumber":2,"parameterNumberName":"U-component_of_WINDS"},"data":[0,0,0,0,0,0,0,0,0,0,0,0,0,0,0,0,0,0,0,0,0,0,0,0,0,0,0,0,0,0,0,0,0,0,0,0,0,0,0,0,0,0,0,0,0,0,0,0,0,0,0,0,0,0,0,0,0,0,-1.8964,-1.8965,0,-1.9013,-1.9013,-1.9014,-1.9001,-1.9,-1.8999,-1.8999,-1.9048,-1.9051,-1.9053,0,0,0,0,0,0,0,0,0,0,0,0,0,-1.8862,-1.8864,-1.8964,-1.8965,-1.8966,-1.9013,-1.9013,-1.9014,-1.9002,-1.9,-1.8999,-1.8998,-1.9048,-1.905,-1.9053,0,0,0,0,0,0,0,0,0,0,0,0,0,-1.8908,-1.8864,-1.8964,-1.8965,-1.8966,-1.9013,-1.9013,-1.9014,-1.9002,-1.9,-1.8999,-1.8998,-1.9047,-1.905,-1.9053,-1.9103,0,0,-1.9064,-1.9065,0,0,0,0,0,0,0,0,-1.8905,-1.8912,-1.8964,-1.8965,-1.8966,-1.9,-1.8995,-1.9044,-1.9002,-1.8988,-1.8999,-1.8997,-1.9033,-1.9038,-1.905,-1.9105,-1.9107,-1.9064,-1.9066,-1.9067,-1.9068,0,0,0,0,0,0,0,-1.8902,-1.8909,-1.8984,-1.8965,-1.8966,-1.8963,-1.8968,-1.9005,-1.9018,-1.8989,-1.8988,-1.8994,-1.9033,-1.9047,-1.9051,-1.9108,-1.9064,-1.9067,-1.9069,-1.907,-1.9206,-1.9208,0,0,0,0,0,0,-1.8898,-1.8907,-1.8982,-1.8985,-1.8931,-1.8966,-1.8972,-1.899,-1.9018,-1.9021,-1.8995,-1.8994,-1.9042,-1.9047,-1.9053,-1.9112,-1.9067,-1.907,-1.9072,-1.9205,-1.9207,-1.9208,0,0,0,0,0,0,-1.8896,-1.8905,-1.898,-1.8946,-1.8955,-1.8969,-1.899,-1.8992,-1.9005,-1.9022,-1.9025,-1.9007,-1.9041,-1.9048,-1.909,-1.9114,-1.9072,-1.9075,-1.9203,-1.9205,-1.9207,-1.9232,0,0,0,0,0,0,-1.8893,-1.8904,-1.8923,-1.8946,-1.8957,-1.9017,-1.8992,-1.8994,-1.9011,-1.9009,-1.9034,-1.9036,-1.904,-1.9086,-1.9094,-1.9118,-1.9077,-1.9201,-1.9204,-1.9207,-1.9229,-1.9235,-1.924,0,0,0,0,0,-1.8889,-1.8928,-1.8924,-1.8933,-1.8981,-1.9018,-1.9024,-1.9028,-1.9013,-1.9032,-1.9043,-1.9035,-1.911,-1.909,-1.9099,-1.9125,-1.9199,-1.9203,-1.9206,-1.9227,-1.9234,-1.924,0,0,0,0,0,0,-1.8907,-1.8931,-1.8927,-1.8974,-1.8994,-1.9016,-1.904,-1.9036,-1.9061,-1.9058,-1.9061,-1.9067,-1.911,-1.9122,-1.9099,-1.9174,-1.9152,-1.9158,-1.9165,-1.9172,-1.9177,-1.9173,-1.908,0,0,0,0,0,-1.8917,-1.8945,-1.8964,-1.9004,-1.9014,-1.9026,-1.9042,-1.9043,-1.9064,-1.9073,-1.9087,-1.9108,-1.9136,-1.9155,-1.9182,-1.9231,-1.9236,-1.9253,-1.9259,-1.9263,-1.9268,-1.9295,-1.9303,-1.922,-1.922,-1.922,0,0,-1.8936,-1.8953,-1.8971,-1.9008,-1.9024,-1.9053,-1.9033,-1.9065,-1.9087,-1.9078,-1.9119,-1.913,-1.9153,-1.92,-1.9221,-1.921,-1.9292,-1.9268,-1.9271,-1.9273,-1.9299,-1.9307,-1.9314,-1.9223,-1.9222,-1.9222,0,0,-1.8987,-1.9003,-1.9038,-1.9054,-1.9078,-1.9085,-1.9094,-1.9116,-1.9123,-1.9165,-1.9158,-1.9185,-1.9233,-1.925,-1.9265,-1.9323,-1.9317,-1.9332,-1.936,-1.9387,-1.9393,-1.9399,-1.942,-1.9427,-1.9337,-1.9337,-1.9337,0,-1.9009,-1.9053,-1.9056,-1.9089,-1.9106,-1.9099,-1.9134,-1.915,-1.9182,-1.9194,-1.9182,-1.9243,-1.9258,-1.9308,-1.9322,-1.9335,-1.9345,-1.9329,-1.9392,-1.9398,-1.9403,-1.9423,-1.9431,-1.9338,-1.9338,-1.9338,-1.9338,0,-1.9078,-1.9109,-1.9134,-1.9165,-1.9185,-1.9219,-1.9227,-1.9247,-1.9247,-1.9255,-1.9297,-1.9316,-1.9346,-1.9358,-1.9358,-1.9409,-1.9401,-1.9391,-1.9369,-1.9413,-1.9431,-1.9439,-1.9341,-1.934,-1.934,-1.9339,0,0,-1.9142,-1.9174,-1.9183,-1.9197,-1.9223,-1.9247,-1.9281,-1.9311,-1.9328,-1.935,-1.9378,-1.942,-1.941,-1.9427,-1.9429,-1.9452,-1.9497,-1.9439,-1.9439,-1.9449,-1.9554,-1.9562,-1.9571,-1.9493,-1.9495,-1.9496,-1.9552,0,-1.9195,-1.9254,-1.9258,-1.9312,-1.934,-1.9334,-1.9364,-1.9383,-1.9392,-1.9418,-1.9428,-1.9457,-1.9442,-1.9453,-1.9475,-1.9487,-1.9518,-1.9483,-1.952,-1.9521,-1.9514,-1.958,-1.9589,-1.9641,-1.9559,-1.9561,-1.9562,0,-1.9265,-1.9289,-1.9346,-1.9368,-1.938,-1.9407,-1.9434,-1.9459,-1.9481,-1.9486,-1.9505,-1.9504,-1.9539,-1.9516,-1.9565,-1.954,-1.9556,-1.9564,-1.9566,-1.957,-1.9544,-1.9586,-1.9657,-1.9665,-1.9573,-1.9572,-1.9571,0,-1.9306,-1.9353,-1.9392,-1.9405,-1.9432,-1.945,-1.9462,-1.9483,-1.9501,-1.9525,-1.9537,-1.9565,-1.9581,-1.9602,-1.9609,-1.9592,-1.9657,-1.9635,-1.9662,-1.9662,-1.9676,-1.9675,-1.9751,-1.9686,-1.9686,-1.9686,-1.9686,0,-1.9365,-1.94,-1.9411,-1.9436,-1.9474,-1.9479,-1.9517,-1.9528,-1.9547,-1.9574,-1.957,-1.9596,-1.9603,-1.9629,-1.9635,-1.9674,-1.9681,-1.9686,-1.9687,-1.9686,-1.9686,-1.9697,-1.9693,-1.9688,-1.9688,-1.9687,-1.9687,0,-1.9417,-1.9426,-1.9469,-1.9491,-1.9497,-1.9525,-1.9544,-1.9568,-1.9576,-1.961,-1.9619,-1.9632,-1.9663,-1.9672,-1.9709,-1.9713,-1.9759,-1.9757,-1.9752,-1.9752,-1.9779,-1.9776,-1.9864,-1.9876,-1.9803,-1.9804,-1.9805,0,-1.9454,-1.9481,-1.9506,-1.9523,-1.9536,-1.9565,-1.9583,-1.9588,-1.9607,-1.9634,-1.9655,-1.9686,-1.9711,-1.9761,-1.9774,-1.9803,-1.9801,-1.983,-1.9805,-1.9804,-1.9802,-1.98,-1.9803,-1.9835,-1.9835,-1.9836,-1.9836,0,-1.952,-1.9523,-1.9549,-1.9576,-1.9598,-1.962,-1.9641,-1.9656,-1.9665,-1.9686,-1.9718,-1.9737,-1.9775,-1.9806,-1.9835,-1.9848,-1.9844,-1.9844,-1.9852,-1.9852,-1.9848,-1.985,-1.9765,-1.9842,-1.9842,-1.9841,-1.9841,-1.9841,-1.9566,-1.9589,-1.961,-1.9639,-1.9656,-1.9676,-1.9699,-1.971,-1.9737,-1.9768,-1.977,-1.9805,-1.9826,-1.9865,-1.9879,-1.9906,-1.9898,-1.9909,-1.9912,-1.9915,-1.9917,-1.9843,-1.9912,-1.9911,-1.9911,-1.9911,-1.9911,0,-1.9631,-1.9644,-1.9671,-1.97,-1.9723,-1.9717,-1.9741,-1.976,-1.9791,-1.9811,-1.9836,-1.9872,-1.9902,-1.9918,-1.9947,-1.9966,-1.9965,-1.9974,-1.9972,-1.9975,-1.9923,-1.9913,-1.9974,-1.9974,-1.9974,-1.9974,-1.9974,-1.9974,-1.9667,-1.9707,-1.9712,-1.976,-1.9773,-1.9806,-1.982,-1.9839,-1.9855,-1.9896,-1.992,-1.993,-1.9949,-1.998,-2.0007,-2.0011,-2.0022,-2.0032,-2.0035,-1.9985,-1.9979,-1.9973,-1.9964,-2.0034,-2.0034,-2.0085,-2.0085,-2.0086]},{"header":{"parameterUnit":"m.s-1","parameterCategory":1,"la1":30.2991,"la2":30.254,"lo1":-89.0895,"lo2":-89.0444,"dy":0.0017,"dx":0.0017,"nx":28,"ny":28,"refTime":"2024-05-22T03:00:00:Z","depth":0,"parameterNumber":3,"parameterNumberName":"V-component_of_WINDS"},"data":[0,0,0,0,0,0,0,0,0,0,0,0,0,0,0,0,0,0,0,0,0,0,0,0,0,0,0,0,0,0,0,0,0,0,0,0,0,0,0,0,0,0,0,0,0,0,0,0,0,0,0,0,0,0,0,0,0,0,4.2715,4.2715,0,4.2766,4.2766,4.2767,4.2726,4.2724,4.2722,4.2721,4.277,4.2773,4.2776,0,0,0,0,0,0,0,0,0,0,0,0,0,4.2578,4.2581,4.2714,4.2715,4.2716,4.2766,4.2766,4.2767,4.2726,4.2724,4.2722,4.272,4.2769,4.2773,4.2776,0,0,0,0,0,0,0,0,0,0,0,0,0,4.2634,4.2582,4.2714,4.2701,4.2701,4.2766,4.2766,4.2767,4.2727,4.2724,4.2721,4.2719,4.2768,4.2772,4.2777,4.2856,0,0,4.279,4.2792,0,0,0,0,0,0,0,0,4.2631,4.2639,4.2703,4.2702,4.2702,4.2737,4.2736,4.2797,4.2727,4.2717,4.2721,4.2718,4.2761,4.2766,4.2781,4.2858,4.286,4.279,4.2793,4.2795,4.2796,0,0,0,0,0,0,0,4.2627,4.2637,4.2735,4.2704,4.2703,4.2692,4.2697,4.2748,4.2753,4.2717,4.2715,4.2721,4.276,4.2777,4.2782,4.2861,4.279,4.2794,4.2797,4.2799,4.3004,4.3007,0,0,0,0,0,0,4.2625,4.2634,4.2733,4.2736,4.2659,4.2697,4.2702,4.2728,4.2752,4.2753,4.2723,4.2719,4.2771,4.2777,4.2783,4.2877,4.2795,4.2799,4.2802,4.3002,4.3005,4.3008,0,0,0,0,0,0,4.2622,4.2634,4.2731,4.2684,4.2696,4.2702,4.2731,4.2731,4.2747,4.2757,4.2757,4.274,4.2769,4.2777,4.2838,4.2878,4.2801,4.2805,4.2998,4.3003,4.3007,4.3065,0,0,0,0,0,0,4.2618,4.2633,4.2664,4.2685,4.2698,4.2786,4.2734,4.2733,4.2755,4.275,4.2772,4.2773,4.2767,4.2832,4.2842,4.2883,4.2808,4.2995,4.3,4.3005,4.3059,4.307,4.308,0,0,0,0,0,4.2614,4.2678,4.2666,4.2678,4.2737,4.2788,4.2796,4.2789,4.2759,4.2789,4.2795,4.2772,4.2872,4.2838,4.285,4.2892,4.2992,4.2999,4.3005,4.3055,4.3068,4.308,0,0,0,0,0,0,4.2661,4.2681,4.2667,4.2741,4.2764,4.2781,4.282,4.2803,4.2834,4.2828,4.2817,4.2822,4.2886,4.2895,4.2857,4.2969,4.2927,4.2936,4.2961,4.2974,4.2984,4.298,4.2812,0,0,0,0,0,4.268,4.2721,4.2736,4.2799,4.2811,4.2814,4.2836,4.2828,4.2851,4.2859,4.287,4.2892,4.2927,4.2951,4.2985,4.3061,4.3064,4.3095,4.3106,4.3114,4.3122,4.3161,4.3175,4.3029,4.3029,4.3029,0,0,4.272,4.2736,4.2762,4.2809,4.2825,4.2867,4.2822,4.2868,4.2898,4.2866,4.2924,4.2933,4.2956,4.3024,4.3055,4.3034,4.3163,4.3122,4.3129,4.3132,4.3169,4.3183,4.3195,4.3033,4.3033,4.3032,0,0,4.2813,4.283,4.2884,4.2901,4.2927,4.2929,4.2942,4.2962,4.2967,4.3025,4.3002,4.3037,4.31,4.3117,4.3134,4.3234,4.3214,4.3245,4.3299,4.3338,4.3349,4.3359,4.3393,4.3406,4.3253,4.3253,4.3253,0,4.2858,4.2921,4.2913,4.2961,4.2982,4.2956,4.301,4.3027,4.3062,4.3077,4.3053,4.3131,4.3145,4.3216,4.3241,4.3256,4.3269,4.3242,4.3348,4.3358,4.3367,4.34,4.3413,4.3257,4.3256,4.3256,4.3256,0,4.2975,4.3019,4.3059,4.3095,4.312,4.3171,4.317,4.3196,4.3187,4.319,4.3249,4.3265,4.3301,4.3318,4.3309,4.3388,4.3374,4.335,4.3307,4.3385,4.3415,4.3428,4.3262,4.3261,4.3259,4.3259,0,0,4.3099,4.313,4.3144,4.316,4.3186,4.3219,4.3268,4.3305,4.3327,4.3352,4.3392,4.3446,4.3423,4.3442,4.3435,4.3469,4.3546,4.344,4.344,4.3458,4.3632,4.365,4.3664,4.3533,4.3535,4.3537,4.363,0,4.3192,4.3278,4.3273,4.3353,4.3392,4.3369,4.3411,4.3431,4.3436,4.3469,4.3474,4.3512,4.348,4.3491,4.3524,4.3529,4.358,4.3523,4.3568,4.357,4.3562,4.368,4.3699,4.3786,4.3642,4.3644,4.3645,0,4.3312,4.3342,4.3427,4.3447,4.3463,4.3502,4.3534,4.3567,4.3589,4.3589,4.3611,4.3598,4.3646,4.3603,4.3669,4.363,4.3648,4.3654,4.3657,4.366,4.3611,4.3685,4.3813,4.3826,4.3664,4.3663,4.3661,0,4.3392,4.3454,4.3512,4.3526,4.3552,4.3579,4.359,4.361,4.3632,4.366,4.3674,4.3707,4.3725,4.375,4.3746,4.3716,4.3812,4.3769,4.3813,4.3813,4.3834,4.3832,4.3965,4.3848,4.3848,4.3847,4.3847,0,4.3496,4.3549,4.3548,4.3584,4.3642,4.3635,4.3692,4.37,4.3718,4.3754,4.3735,4.3769,4.3762,4.3796,4.3793,4.3847,4.3855,4.3856,4.3854,4.3857,4.3857,4.3868,4.3861,4.3851,4.385,4.3849,4.3849,0,4.3595,4.3597,4.3659,4.3678,4.3684,4.3725,4.3741,4.3774,4.3778,4.3823,4.3834,4.3838,4.3877,4.3876,4.3919,4.3917,4.3983,4.3975,4.3976,4.3974,4.4017,4.4013,4.4161,4.418,4.4051,4.4053,4.4054,0,4.3661,4.37,4.3724,4.3747,4.3761,4.3799,4.3821,4.3815,4.3839,4.3867,4.3897,4.3934,4.3963,4.4026,4.4032,4.4065,4.4057,4.4107,4.4062,4.4063,4.4056,4.4053,4.4057,4.4115,4.4117,4.4118,4.4119,0,4.3777,4.3776,4.3809,4.3843,4.3871,4.3897,4.3921,4.3941,4.3938,4.3965,4.4005,4.4028,4.4073,4.4109,4.4141,4.4151,4.4134,4.4133,4.4145,4.4147,4.4146,4.4146,4.3998,4.4129,4.4128,4.4128,4.4127,4.4127,4.386,4.3894,4.3915,4.3953,4.3971,4.3994,4.4026,4.4033,4.4066,4.4103,4.4098,4.4142,4.4162,4.4203,4.4216,4.425,4.4232,4.4249,4.4253,4.4257,4.4262,4.4142,4.4256,4.4255,4.4255,4.4255,4.4255,0,4.3974,4.3987,4.4021,4.4056,4.4085,4.4068,4.4094,4.4119,4.4158,4.4179,4.4209,4.4254,4.4289,4.4299,4.4332,4.4357,4.435,4.4366,4.4363,4.4366,4.4276,4.4262,4.4371,4.4371,4.4371,4.4371,4.4371,4.4371,4.4036,4.4092,4.4094,4.4158,4.417,4.4214,4.423,4.4251,4.4267,4.4319,4.4348,4.4354,4.437,4.4405,4.4436,4.4438,4.4451,4.447,4.4468,4.4384,4.4372,4.4361,4.4348,4.4473,4.4473,4.4555,4.4556,4.4556]}]]